TINTIN B (43217 NORAD) Tracking and Keplerian Element Data

This shows tracking and keplerian element data for the satellite.

Feedback or suggestion? Click here.




ElementValue
Catalog43217
NameTINTIN B
Epoch Orbit13685
Epoch Day221.01888635
Epoch Year2020
RAAN238.058
Inclination97.4319
Eccentricity0.0015584
Argument of Perigee250.5191
Mean Anonmoly169.7925
Mean Motion16.48446726
Decay Rate0.36665659
L11 43217U 18020C 20221.01888635 .36665659 26093-5 47877-3 0 9991
L22 43217 97.4319 238.0580 0015584 250.5191 169.7925 16.48446726136854

Live tracking and technical data element details for TINTIN B (NORAD 43217). TINTIN B can be tracked NOW for your location showing map with azimuth and elevation plus other details from your city location.

Track the satellite on the map from your city or location and see movement details for azimuth, elevation, latitude, longitude, range, height, and movement on the map or in text.







IsCatalogInMostPopularTable: catalog: 43217, numindb: 681
Update: records affected: 1



GetName: 43217 TINTIN B

Hit Count: updated at: Tue, 11 May 2021 19:28:21 GMT